CDT,Max TemperatureF,Mean TemperatureF,Min TemperatureF,Max Dew PointF,MeanDew PointF,Min DewpointF,Max Humidity, Mean Humidity, Min Humidity, Max Sea Level PressureIn, Mean Sea Level PressureIn, Min Sea Level PressureIn, Max VisibilityMiles, Mean VisibilityMiles, Min VisibilityMiles, Max Wind SpeedMPH, Mean Wind SpeedMPH, Max Gust SpeedMPH,PrecipitationIn, CloudCover, Events, WindDirDegrees
2012-3-1,83,77,70,70,67,64,100,79,58,30.01,29.93,29.83,10,9,7,22,12,26,T,6,Rain,205
2012-3-2,84,77,70,70,67,65,90,74,58,29.85,29.79,29.72,10,10,10,26,17,35,T,7,Rain,204
2012-3-3,73,58,42,69,46,31,87,64,40,30.10,29.88,29.75,10,9,2,22,6,30,0.31,6,Rain,3
2012-3-4,68,53,38,43,33,24,92,57,22,30.26,30.18,30.11,10,10,10,18,7,25,0.00,0,,260
2012-3-5,76,61,45,49,42,36,93,58,23,30.39,30.33,30.27,10,10,10,16,3,21,0.00,0,,273
2012-3-6,76,61,45,57,50,44,100,68,35,30.38,30.31,30.25,10,10,9,17,8,24,0.00,1,,113
2012-3-7,80,69,57,65,60,55,100,77,54,30.25,30.19,30.14,10,10,10,18,10,26,0.00,6,,118
2012-3-8,85,77,68,70,66,64,93,72,51,30.15,30.11,30.06,10,10,7,25,11,30,T,7,,156
2012-3-9,72,64,55,70,60,41,100,89,77,30.35,30.21,30.10,10,8,1,15,7,20,0.48,7,Rain,59
2012-3-10,66,59,51,56,43,37,78,62,45,30.31,30.24,30.19,10,10,10,15,8,20,0.00,4,,80
2012-3-11,78,69,60,66,63,57,97,81,64,30.20,30.15,30.07,10,10,4,23,10,29,0.22,7,Rain,108
2012-3-12,70,64,58,67,63,58,100,92,84,30.18,30.14,30.09,10,8,1,28,6,35,1.50,5,Rain-Thunderstorm,138
2012-3-13,82,70,57,70,63,57,100,79,58,30.23,30.18,30.13,10,5,0,10,4,14,0.01,5,Fog-Rain-Thunderstorm,129
2012-3-14,83,74,64,68,66,62,100,76,51,30.25,30.19,30.15,10,7,0,13,5,21,0.00,5,Fog,151
2012-3-15,82,72,62,68,64,59,100,76,51,30.28,30.22,30.16,10,6,0,15,5,21,0.00,4,Fog,150
2012-3-16,83,72,61,68,62,56,100,70,40,30.22,30.18,30.12,10,8,0,14,5,20,0.00,3,Fog,177
2012-3-17,83,72,60,68,63,61,100,76,51,30.21,30.16,30.09,10,6,0,16,6,22,0.00,4,Fog,120
2012-3-18,85,76,67,70,66,61,100,74,47,30.18,30.13,30.08,10,9,1,17,9,22,0.00,4,,136
2012-3-19,80,74,67,68,65,59,100,77,54,30.09,30.01,29.92,10,10,8,23,12,30,0.00,4,,130
2012-3-20,82,77,71,68,66,62,84,69,54,29.91,29.87,29.82,10,10,10,26,15,36,0.04,7,Rain,134
2012-3-21,74,65,56,68,61,54,100,90,79,30.02,29.90,29.78,10,6,0,33,9,43,3.37,8,Fog-Rain-Thunderstorm,149
2012-3-22,74,63,52,60,55,51,100,75,49,30.04,30.00,29.96,10,10,6,12,4,14,0.15,5,Rain,104
2012-3-23,80,68,56,61,57,48,100,68,35,30.04,29.99,29.95,10,6,0,12,2,17,0.00,4,Fog,314
2012-3-24,80,67,53,56,52,47,100,68,35,30.03,29.98,29.94,10,10,10,14,3,20,0.00,0,,327
2012-3-25,82,67,51,57,53,49,96,65,33,30.06,30.00,29.96,10,10,10,13,2,18,0.00,0,,298
2012-3-26,84,71,57,64,58,55,93,67,40,30.09,30.03,29.99,10,10,10,8,2,13,0.00,0,,66
2012-3-27,84,71,57,62,59,57,100,72,43,30.13,30.08,30.03,10,10,8,13,4,17,0.00,1,,160
2012-3-28,83,72,60,65,61,58,100,72,43,30.14,30.08,30.01,10,8,2,17,4,24,0.00,2,,121
2012-3-29,83,72,60,68,63,59,100,74,47,30.03,29.98,29.88,10,6,0,20,4,24,0.01,4,Fog-Rain,106
2012-3-30,82,73,64,67,64,57,100,73,45,29.95,29.90,29.84,10,9,3,18,6,23,0.33,5,Rain,184
2012-3-31,85,76,66,68,65,63,100,74,48,29.97,29.91,29.86,10,10,8,13,6,15,0.00,3,,235